Location: Camp at the Woods
(43.2055°N, 93.0905°W)
Time: 12:46:48
(UTC+00:00)

H-2A R/B - Pass Details

Date: 05 December 2023
Orbit: 732 x 833 km, 98.2° (Epoch: 20 February)

Event Time Altitude Azimuth Distance (km) Brightness Sun altitude
Rises 12:34:21 0° 356° (N) 3,171 4.9 -9.7°
Reaches altitude 10° 12:37:31 10° 334° (NNW) 2,248 4.0 -9.2°
Maximum altitude 12:40:17 15° 299° (WNW) 1,913 3.4 -8.7°
Drops below altitude 10° 12:43:04 10° 265° (W) 2,258 3.9 -8.2°
Sets 12:46:16 0° 243° (WSW) 3,192 4.8 -7.7°
